Погода Канадей

Погода Канадей : погода сейчас, прогноз погоды и архив. Всё, что Вы хотите узнать о погоде Канадей!

Поиск расширенной информации на нашем сайте:

Другие новости

Новости СМИ2

Главная страница сайта

Новости сайта

03.07.2017

Напоминаем, что на нашем специализированном сайте Метеоцентр.Азия вы можете получить высокодетализированные автоматические прогнозы погоды по пунктам России, СНГ и мира в авиационном формате (включающие направление и скорость ветра, видимость, явления погоды, количество и форму облачности, нижнюю и верхнюю границу облачности).


Погода Канадей - сегодня

Время (UTC), дата Ветер
(°,м/с) 
Видим.   Явления Облачность Т
(°С)
Тd
(°С)
f(%) Тe
(°С)
Pmin
(гПа)
dP
(гПа)
Po
(мм)
O2
(г/м3)
Тmin Tmax R s Состояние
почвы
21 09.10.18 070 (В) 10 км    10/10 720 м 
[Sc]
+7.2 +5.7 90 +8  1027.5  0.1  761  298           
09 10.10.18 250 (З) 10 км    10/10 720 м кучево-дожд. 
[Cb cap]
+10.7 +7.8 82 +11  1025.2  -1.4  760  293           
12 10.10.18 270 (З) 20000 м    10/0 верхняя 
[Ci]
+14.1 +8.3 68 +15  1022.6  -2.4  758  289           
18 10.10.18 290 (З) 10 км    10/0 верхняя 
[Ci]
+9.5 +6.8 83 +11  1019.7  -1.6  756  293           
21 10.10.18 280 (З) 10 км    8/0 верхняя 
[Ci]
+11.1 +0.8 49 +11  1017.8  -1.8  754  292           
00 11.10.18 250 (З) 10 км    4/0 верхняя 
[Ci sp]
+8.9 +1.9 61 +9  1016.3  -1.6  753  294           
09 11.10.18 320 (СЗ) 4{12}  20000 м    10/0 средняя, верхняя 
[Ac trans|Ci]
+12.5 +1.8 48 +12  1019.2  0.9  755  291           
18 11.10.18 350 (С) 10 км    ясно 
+6.9 -1.3 56 +7  1024.1  2.2  759  298           
21 11.10.18 330 (СЗ) 10 км    ясно 
+3.8 -1.4 69 +3  1025.7  1.4  760  302           
00 12.10.18 330 (СЗ) 10 км    ясно 
+2.2 -1.5 76 +1  1027.1  1.3  761  304           
06 12.10.18 330 (СЗ) 20000 м    ясно 
+4.6 -0.7 68 +3  1030  1.7  763  303  +0.1         
09 12.10.18 340 (С) 4{11}  20000 м    3/0 средняя 
[Ac trans]
+8.7 -5.6 36 +8  1029.7  -0.2  763  299           
18 12.10.18 300 (СЗ) 10 км    10/0 средняя 
[Ac trans]
+9 -0.5 51 +9  1026  -1.6  760  297           
21 12.10.18 280 (З) 10 км    10/0 средняя 
[Ac trans]
+9.1 +0.6 55 +9  1024.5  -1.4  759  296           
00 13.10.18 260 (З) 10 км    10/0 средняя 
[Ac trans]
+8.3 +2 64 +9  1023.1  -1.4  758  296           
09 13.10.18 330 (СЗ) 20000 м    10/10 720 м кучево-дожд. 
[Cb cap]
+10.5 +4.6 67 +10  1024.5  0.4  759  294           
18 13.10.18 330 (СЗ) 10 км    10/10 720 м 
[Sc diur, vesp]
+9 +5.9 81 +10  1023.7  0.2  759  295           
21 13.10.18 330 (СЗ) 10 км    10/10 720 м 
[Sc diur, vesp]
+8.3 +6.1 86 +8  1023.5  -0.2  758  296           
06 14.10.18 350 (С) 20000 м    9/3 600 м средняя 
[Sc|Ac trans]
+7.8 +2.4 69 +9  1024.2  0.8  759  297  +4.4         
09 14.10.18 320 (СЗ) 20000 м    8/8 750 м кучево-дожд. 
[Cb cap]
+9.6 +2.5 61 +10  1024.1  759  295           
12 14.10.18 340 (С) 20000 м    10/0 средняя, верхняя 
[Ac trans|Ci]
+11.1 -1.1 43 +11  1023.3  -0.6  758  294           
18 14.10.18 тихо ()   10 км    10/0 верхняя 
[Ci]
+5.4 +0.6 71 +5  1024.4  0.5  759  300           
21 14.10.18 090 (В) 10 км    10/0 средняя, верхняя 
[Ac trans|Ci]
+5.1 +0.6 73 +6  1023.9  -0.5  759  300           
06 15.10.18 230 (ЮЗ) 20000 м    10/10 720 м 
[Sc]
+6.9 +2.3 72 +8  1023.1  -0.2  758  298           
09 15.10.18 130 (ЮВ) 20000 м    10/10 750 м 
[Sc]
+10.1 +5.3 72 +11  1023.2  0.3  758  294           
Время (UTC), дата Ветер
(°,м/с) 
Видим.   Явления Облачность Т
(°С)
Тd
(°С)
f(%) Тe
(°С)
Pmin
(гПа)
dP
(гПа)
Po
(мм)
O2
(г/м3)
Тmin Tmax R s Состояние
почвы

Для получения пояснительной информации подведите курсор к названию столбца.

ПОГОДА Канадей - архив

Всё, что Вы хотите узнать о погоде Канадей - удобно и подробно!

Выберите нужную дату (начиная с 1 января 2015* года) и нажмите кнопку "Найти".
Будут отображены архивные сводки погоды по пункту Канадей, начиная с указанной даты.


Отображать данные в формате CSV (для использования в таблицах Excel)


Внимание! Наш архив погоды предназначен исключительно для личного некоммерческого использования в познавательных целях. Если Вам необходимы официальные справки о состоянии погоды (для производственных, юридических, коммерческих и т.п. целей), обращайтесь в органы Росгидромета.

*Примечание: данная дата относится к архиву по метеостанциям СССР (Россия, СНГ, Балтия).
Архив по метеостанциям Зарубежной Европы и Азии (кроме Китая) хранится 10 дней, по другим регионам земного шара (Китай, Африка, Америка, Австралия, Океания) - 1 день.

Канадей - район местоположения метеостанции


Название, широта, долгота, высота метеостанции:
Канадей 53.1°ш. 47.5°д. 103 м над ур. моря [Российская Федерация]

Дополнительная информация

В oтличие oт бoльшинства пoгoдных сайтoв мы публикуем пoдрoбную метеoинфoрмацию в детальнoм прoфессиoнальнoм фoрмате.

Характеристики температуры и влажнoсти вoздуха измеряются на высoте 2 м в тени вдали oт зданий и деревьев.
Скoрoсть ветра измеряется на высoте 10 м (на урoвне рoста челoвека скoрoсть ветра ниже в 1.5-2 раза). Если метеoстанция нахoдится в гoрoде или в лесу, тo скoрoсть ветра занижена на 2-4 м/с пo сравнению с oткрытым местoм. Скoрoсть ветра над акватoриями крупных рек и oзёр, а также на вершинах хoлмoв на 2-5 м/с выше, чем в oбычных услoвиях.
Атмoсфернoе давление в разных тoчках местнoсти мoжет значительнo oтличаться oт давления на метеoстанции, в зависимoсти oт услoвий рельефа (при пoдъёме на 10 м давление пoнижается примернo на 1 мм рт.ст.).